Temperature
18 18 19 19 19 19 19 19 19 19 19 18 18 18 18 18 18 18 18 18 18 18 18 18 18 18 18 18 18 18 18 18 18 18 18 18 18 18 18 18 17 17 18
19 18 19 19 19 19 19 19 19 19 18 18 18 18 18 18 18 18 18 18 18 18 18 18 18 18 18 18 18 18 18 18 18 18 18 18 18 18 18 18 17 17 18
19 18 18 19 19 19 19 18 18 18 18 18 18 18 18 18 18 18 18 18 18 18 18 18 18 18 18 18 18 18 18 18 18 18 18 18 17 18 18 18 18 18 18
19 18 18 19 19 19 19 18 18 18 18 18 18 18 18 18 18 18 18 18 18 18 18 18 18 18 18 18 18 18 18 18 18 18 18 18 17 18 18 18 17 17 17
19 18 18 19 19 19 19 18 18 18 18 18 18 18 18 18 18 18 18 18 18 18 18 18 18 18 18 18 18 18 18 18 18 18 18 17 17 18 18 18 17 17 17
19 18 18 19 19 19 19 18 18 18 18 18 18 18 18 18 18 18 18 18 18 18 18 18 18 18 18 18 18 18 18 18 18 18 18 18 17 18 18 18 17 17 17
19 19 18 19 19 19 19 18 18 18 18 18 18 18 18 18 18 18 18 18 18 18 18 18 18 18 18 18 18 18 18 18 18 18 18 18 18 18 18 18 18 17 17
19 19 18 19 19 19 19 19 18 18 18 18 18 18 18 18 18 18 18 18 18 18 18 18 18 18 18 18 18 18 18 18 18 18 18 18 18 18 18 18 17 17 17
19 19 18 18 18 18 18 19 18 18 18 18 18 18 18 18 18 18 18 18 18 18 18 18 18 18 18 18 18 18 18 18 18 18 18 18 18 18 18 17 17 17 17
19 19 18 18 18 18 18 18 18 18 18 18 18 18 18 18 18 18 18 18 18 18 18 18 18 18 18 18 18 18 18 18 18 18 18 18 18 18 18 17 17 17 17
18 19 19 19 18 18 18 18 18 18 18 18 18 18 18 18 18 18 18 18 18 18 18 18 18 18 18 18 18 18 18 18 18 19 18 18 18 18 18 18 17 17 17
19 19 19 19 19 19 18 18 18 18 18 18 18 18 18 18 18 18 18 18 18 18 18 18 18 18 18 18 18 18 18 18 18 19 18 18 18 18 18 18 17 17 17
19 19 19 19 19 19 18 18 18 18 18 18 18 18 18 18 18 18 18 18 18 18 18 18 18 18 18 18 18 18 18 19 19 19 18 18 18 18 18 18 18 17 17
19 19 19 19 19 18 18 18 18 18 18 18 18 18 18 18 18 18 18 18 18 18 18 18 18 18 18 18 18 18 18 18 19 18 18 18 18 18 18 18 18 18 18
19 19 19 19 18 18 18 18 18 18 18 18 18 18 18 18 18 18 18 18 18 18 18 18 18 18 18 18 18 18 18 18 18 18 18 18 18 18 18 18 18 18 18
19 19 19 19 19 19 19 18 18 18 18 18 18 18 18 18 18 18 18 18 18 18 18 18 18 18 18 18 18 18 18 18 18 18 18 18 18 18 18 18 18 18 18
19 19 19 19 19 19 18 18 18 18 18 18 18 18 18 18 18 18 18 18 18 18 18 18 18 18 18 18 18 18 18 18 18 18 18 18 18 18 18 18 18 18 18
20 19 19 19 19 19 19 19 18 18 18 18 18 18 18 18 18 18 18 18 18 18 18 18 18 18 18 18 18 18 18 18 18 18 18 18 18 18 18 18 18 18 18
20 20 20 19 19 19 19 19 18 18 18 18 18 18 18 18 18 18 18 18 18 18 18 18 18 18 18 18 18 18 19 19 18 18 18 18 18 18 18 18 18 18 18
20 20 20 20 19 19 19 19 18 18 18 18 18 18 18 18 18 18 18 18 18 18 18 18 18 18 18 18 19 19 19 19 19 19 19 19 18 18 18 18 18 18 18
20 20 20 19 19 19 19 19 19 19 19 19 19 18 18 18 18 18 18 18 18 18 18 18 18 18 18 18 18 19 19 19 19 19 19 19 19 18 18 18 18 18 18
21 20 20 20 19 19 19 19 19 19 19 19 19 18 19 18 18 18 18 18 18 18 18 18 18 18 18 18 18 19 19 20 19 19 19 18 18 18 18 18 18 18 17
21 20 20 20 20 20 19 19 19 19 19 19 19 19 19 18 18 18 18 18 18 18 18 18 18 18 18 18 18 19 19 20 20 19 19 18 18 18 18 18 18 18 17
21 21 20 20 20 20 20 19 19 19 19 19 19 19 18 18 18 18 18 18 18 18 18 18 18 18 18 18 18 18 18 19 19 19 19 19 18 18 18 18 18 18 17
21 21 21 20 20 20 20 20 19 19 19 19 19 19 19 18 18 18 18 18 18 18 18 18 18 18 18 18 18 18 18 18 18 19 19 19 18 18 18 18 18 18 17
21 21 21 20 20 20 20 19 19 19 19 19 19 19 19 19 18 18 18 18 18 18 18 18 18 18 18 18 18 18 18 18 18 18 19 18 18 18 18 18 18 17 17
Wind_Speed
5 8 11 11 11 12 12 13 14 13 13 14 15 15 14 14 14 13 13 13 12 12 12 11 11 10 10 10 10 10 9 10 10 9 9 9 8 9 9 9 8 10 13
8 10 12 11 11 12 12 13 13 13 13 14 15 14 13 14 14 13 12 12 11 12 11 11 10 10 10 10 9 9 9 9 9 8 8 9 9 8 8 6 4 9 12
10 11 12 11 11 12 12 12 12 13 14 14 14 13 13 13 13 12 12 11 11 10 10 10 10 10 9 9 9 8 8 8 8 7 6 6 9 9 7 7 8 10 10
10 11 11 12 11 11 11 11 12 12 13 13 13 13 12 12 12 12 11 11 10 10 9 9 9 9 8 8 8 7 7 6 6 6 5 5 7 10 8 7 8 8 9
10 11 12 10 10 10 10 11 11 11 12 12 12 12 11 11 11 10 10 9 9 9 8 8 8 8 7 7 6 6 6 5 4 6 4 4 6 10 8 7 7 8 8
10 11 13 10 10 10 10 10 10 10 11 11 11 11 10 10 9 9 8 8 7 7 7 7 7 6 6 5 5 5 4 4 6 3 4 4 6 9 7 7 7 8 8
10 11 13 10 9 10 9 9 10 10 9 9 9 9 9 8 8 8 7 7 6 6 5 5 5 5 5 4 4 4 3 4 4 2 3 4 7 9 7 6 7 7 7
9 10 12 11 9 8 8 8 8 8 8 9 8 7 7 7 7 6 6 5 5 5 5 4 4 4 4 3 3 3 4 6 4 3 3 4 9 7 6 6 7 7 7
8 9 9 11 10 9 8 7 7 7 7 7 6 6 6 6 6 5 5 4 4 4 4 3 3 3 3 3 3 3 3 6 5 2 3 4 9 6 5 6 7 7 7
7 7 8 8 8 8 9 8 6 6 6 6 5 5 5 5 6 6 6 5 4 4 4 4 3 3 3 3 3 4 5 8 5 3 3 6 8 6 5 6 7 7 7
7 6 6 7 7 6 6 8 7 7 6 5 6 5 3 3 4 6 5 5 3 3 3 3 3 4 5 7 6 6 8 6 3 2 2 9 7 6 6 7 8 8 8
9 7 6 6 6 5 5 6 4 4 5 3 4 3 2 2 2 2 6 5 4 4 5 5 5 7 8 6 8 10 5 4 4 3 4 8 7 7 7 8 8 8 8
9 7 7 5 5 4 4 4 3 3 4 3 3 2 2 1 2 2 2 4 4 5 3 5 6 4 3 2 2 3 2 3 3 3 5 9 7 7 8 8 8 8 8
8 8 7 6 4 4 3 3 3 2 2 2 3 1 2 1 0 1 0 0 1 1 1 1 2 2 2 2 3 3 3 3 2 2 4 8 8 8 8 9 9 10 10
8 8 7 7 5 4 3 3 3 3 2 3 2 2 1 1 0 0 0 1 1 0 1 1 1 1 2 3 3 3 4 3 4 4 4 9 9 9 9 9 10 10 10
8 8 7 8 7 6 5 4 3 3 3 2 3 2 2 1 1 1 1 1 1 1 1 1 1 2 2 2 3 3 4 4 3 4 3 7 10 10 10 10 10 10 11
8 8 7 8 8 7 6 5 4 4 4 3 2 2 2 2 2 2 2 2 1 1 2 2 2 2 3 2 2 3 3 3 3 4 4 4 7 11 11 11 10 11 11
9 8 8 7 8 8 6 5 4 4 3 3 3 3 3 2 2 3 2 2 1 2 2 2 2 2 2 2 2 2 3 3 4 5 5 5 5 5 10 12 10 11 11
9 9 9 8 7 7 7 5 5 4 4 4 3 3 2 3 3 3 2 1 3 2 2 2 1 2 2 2 3 3 3 3 3 4 4 5 5 5 5 10 12 11 11
9 9 9 9 8 7 6 5 5 4 4 4 3 3 3 4 4 4 3 2 3 2 2 2 2 2 3 3 3 2 3 3 4 3 4 4 4 5 5 5 8 11 13
10 10 10 10 9 8 6 6 6 5 5 4 4 4 4 4 4 4 3 2 3 3 3 4 3 3 3 3 3 3 3 4 3 3 3 3 3 3 4 4 5 5 8
11 11 10 10 10 9 7 6 5 4 4 4 3 3 4 4 4 4 3 3 3 3 3 3 3 3 3 3 3 3 2 3 4 3 3 3 3 3 3 4 4 5 6
12 11 10 10 10 10 8 7 5 4 5 5 4 3 3 4 4 3 3 3 3 4 3 3 4 4 3 3 3 3 3 2 2 3 3 3 3 3 3 3 4 4 5
11 11 11 10 10 9 9 8 8 7 6 5 4 3 3 3 3 3 3 3 4 3 3 4 2 3 4 4 3 3 4 3 3 2 3 2 3 3 3 3 3 3 4
10 9 9 9 9 9 9 9 8 8 6 4 4 3 3 2 2 2 2 2 3 3 3 3 2 3 3 4 3 3 3 3 5 4 3 3 3 3 2 3 3 2 3
9 9 9 9 9 9 9 8 8 7 6 5 4 3 3 2 2 2 1 2 2 2 2 3 2 2 2 3 3 3 3 3 3 3 4 4 3 3 2 2 3 2 3
Wind_Direction
105 103 98 98 100 102 105 106 112 114 119 125 126 124 125 123 121 118 117 118 118 116 115 115 113 114 115 112 110 112 114 116 115 113 113 112 112 115 120 129 148 124 118
117 113 104 102 103 102 104 106 107 110 117 125 128 127 127 126 124 122 120 118 118 117 116 114 114 115 114 112 112 114 115 117 118 120 129 131 124 121 124 124 99 111 124
118 116 111 103 104 102 102 103 108 108 113 121 125 128 127 125 123 123 123 121 119 117 116 115 114 114 112 110 110 113 115 119 123 138 176 148 126 126 129 126 117 123 131
116 115 108 108 107 105 104 106 109 111 117 121 124 127 126 126 126 127 125 122 119 117 117 116 115 114 113 111 113 117 119 121 134 187 182 119 122 122 130 133 136 140 140
117 115 110 114 112 110 108 108 109 109 116 121 123 125 126 127 129 128 125 122 118 118 118 117 119 118 118 117 118 120 125 132 173 215 122 107 110 123 136 139 144 148 147
125 121 113 115 111 110 108 105 105 105 111 117 121 124 126 127 128 128 126 123 121 120 120 123 124 123 124 125 126 126 132 163 217 162 122 126 116 127 140 145 148 152 152
126 121 118 116 114 112 111 109 106 105 107 112 118 124 127 129 128 128 130 132 131 129 127 126 130 131 134 138 144 148 158 216 237 138 131 129 109 126 147 153 154 154 156
127 124 123 125 117 116 114 113 110 109 109 112 116 123 130 130 132 135 140 142 140 135 133 133 134 140 145 151 156 164 187 243 207 158 147 121 114 142 163 167 167 164 164
130 128 129 133 132 130 119 114 112 110 110 110 112 119 127 134 138 147 152 154 153 148 149 156 153 158 164 173 179 183 205 252 254 173 162 126 127 154 174 177 176 176 176
136 134 133 130 130 135 131 123 117 114 112 113 116 116 125 144 155 162 168 158 164 165 167 173 176 181 186 194 198 198 215 237 231 198 176 129 140 171 187 190 186 185 185
147 146 138 135 137 134 128 129 137 137 131 145 139 139 171 157 144 163 126 133 160 168 176 182 191 198 204 194 196 209 225 233 213 215 159 120 156 186 200 202 197 193 191
160 157 148 147 144 138 137 130 131 130 120 129 109 120 127 113 125 134 126 160 174 184 191 188 198 207 222 197 186 206 223 225 226 207 141 139 175 197 207 207 202 197 196
163 163 159 153 149 145 141 130 112 111 115 123 104 99 101 148 163 149 143 167 176 191 191 175 202 212 214 216 230 214 240 245 230 220 146 154 184 202 210 208 204 205 205
168 169 162 158 162 164 149 133 133 126 127 122 117 146 132 112 336 69 153 158 190 167 179 221 196 207 229 232 232 230 236 247 235 232 152 161 193 208 213 212 210 211 212
176 178 173 171 173 174 172 184 149 154 165 157 159 159 202 194 242 261 330 300 277 211 197 208 217 205 228 226 237 225 240 245 241 240 173 170 194 208 214 216 214 214 215
185 182 178 183 180 183 185 191 172 175 182 192 183 181 218 234 241 261 237 260 263 270 307 276 246 246 251 251 248 242 245 237 222 239 226 180 189 203 212 216 215 214 214
186 186 185 187 186 189 195 198 189 194 186 192 185 189 229 249 250 265 263 249 238 242 226 237 245 247 246 243 240 247 243 238 231 234 240 228 198 194 204 214 219 216 215
191 189 193 194 188 191 196 203 205 202 197 208 208 204 225 256 249 260 261 264 263 258 238 231 239 253 263 268 251 247 239 225 232 230 233 228 229 214 197 201 215 219 219
197 193 194 199 200 199 195 203 211 207 220 227 222 222 218 238 241 256 273 287 258 250 256 257 252 271 265 271 250 228 234 231 232 231 235 235 229 233 226 186 203 215 218
199 198 198 198 203 205 201 203 213 216 223 228 228 225 236 238 237 262 261 259 261 248 250 266 269 263 268 260 270 264 248 236 231 226 238 230 225 230 234 227 210 207 209
198 200 202 204 197 200 204 208 206 212 220 222 226 225 235 241 236 247 276 265 263 254 261 262 263 252 255 252 258 253 239 224 221 216 230 245 239 239 239 235 240 235 209
196 198 200 205 203 204 203 211 215 225 230 232 245 239 243 238 239 230 242 260 268 269 258 259 256 266 263 252 263 259 240 214 218 221 223 227 249 242 235 230 237 238 249
197 198 203 203 204 209 206 210 211 213 236 233 236 235 246 245 244 264 252 261 270 270 259 257 253 250 259 259 258 270 266 261 251 216 227 233 242 251 249 244 237 236 239
199 197 201 201 203 205 206 214 216 221 228 233 234 232 232 236 247 249 253 260 270 278 267 256 254 264 258 261 249 260 278 294 271 251 220 218 230 240 258 267 262 233 237
196 195 194 196 200 204 210 213 219 228 231 233 227 221 239 226 236 258 264 259 262 273 280 285 285 275 262 267 268 254 251 245 248 260 267 261 251 243 245 258 281 267 251
192 192 189 188 194 198 205 211 216 225 223 223 224 221 225 218 219 236 249 263 267 274 267 264 267 257 274 282 282 279 268 263 265 265 267 262 264 255 251 255 258 260 253
Height
1533 1532 1531 1532 1532 1533 1533 1534 1534 1534 1535 1536 1538 1539 1541 1542 1544 1545 1546 1548 1549 1550 1551 1552 1553 1554 1554 1555 1556 1556 1557 1557 1558 1558 1558 1558 1559 1559 1560 1560 1561 1561 1561
1534 1534 1533 1534 1534 1535 1535 1536 1536 1536 1536 1537 1539 1541 1543 1544 1546 1547 1548 1549 1550 1551 1552 1553 1554 1555 1555 1556 1557 1557 1558 1558 1559 1559 1560 1560 1560 1560 1561 1561 1562 1562 1562
1535 1536 1536 1536 1536 1537 1537 1538 1539 1539 1539 1540 1542 1544 1545 1546 1548 1549 1550 1551 1552 1553 1554 1555 1556 1556 1557 1557 1558 1559 1559 1559 1560 1561 1561 1563 1562 1561 1562 1562 1562 1563 1563
1537 1538 1538 1538 1539 1539 1540 1540 1541 1542 1542 1543 1544 1546 1547 1548 1549 1550 1551 1552 1553 1554 1555 1556 1557 1557 1558 1558 1559 1559 1560 1560 1561 1562 1564 1565 1564 1563 1563 1563 1563 1564 1564
1539 1540 1539 1540 1541 1541 1542 1543 1543 1544 1544 1545 1546 1548 1548 1550 1551 1552 1553 1554 1554 1555 1556 1557 1557 1558 1559 1559 1560 1560 1561 1561 1562 1563 1565 1565 1565 1564 1563 1564 1564 1564 1565
1541 1542 1541 1542 1543 1543 1544 1545 1545 1546 1547 1547 1548 1549 1550 1551 1552 1553 1554 1555 1555 1556 1557 1557 1558 1559 1559 1560 1560 1561 1562 1562 1563 1566 1566 1566 1565 1564 1564 1564 1565 1565 1566
1543 1544 1544 1544 1545 1546 1546 1547 1547 1548 1549 1549 1550 1551 1552 1553 1553 1554 1555 1556 1556 1557 1558 1558 1559 1559 1560 1560 1561 1561 1562 1563 1565 1566 1566 1566 1565 1564 1565 1565 1565 1566 1566
1544 1546 1545 1545 1546 1547 1548 1549 1549 1550 1550 1551 1552 1552 1553 1554 1554 1555 1556 1556 1557 1558 1558 1559 1559 1560 1560 1561 1562 1562 1563 1563 1565 1566 1567 1566 1565 1565 1565 1565 1566 1566 1566
1546 1547 1548 1549 1548 1549 1550 1550 1551 1551 1552 1553 1553 1554 1554 1555 1555 1556 1556 1557 1557 1558 1559 1559 1559 1560 1561 1561 1562 1562 1563 1563 1565 1566 1567 1566 1565 1565 1565 1565 1566 1566 1567
1547 1548 1549 1550 1551 1552 1552 1552 1552 1553 1553 1554 1554 1555 1555 1556 1557 1557 1557 1557 1558 1558 1559 1559 1560 1560 1561 1561 1562 1563 1563 1563 1565 1566 1566 1566 1565 1565 1565 1565 1566 1566 1566
1547 1549 1550 1551 1552 1553 1554 1554 1554 1554 1555 1555 1556 1556 1557 1558 1559 1558 1558 1558 1558 1559 1559 1559 1560 1560 1561 1562 1562 1562 1563 1564 1565 1566 1566 1565 1564 1564 1565 1565 1565 1565 1566
1548 1549 1550 1552 1553 1554 1555 1555 1556 1557 1556 1557 1557 1557 1558 1558 1559 1559 1558 1558 1559 1559 1559 1559 1560 1560 1561 1563 1562 1562 1564 1564 1565 1565 1564 1563 1564 1564 1564 1564 1565 1565 1565
1548 1549 1551 1552 1553 1554 1555 1556 1557 1557 1557 1558 1558 1558 1558 1559 1560 1560 1560 1559 1559 1560 1560 1560 1561 1562 1562 1562 1563 1563 1563 1564 1564 1564 1563 1563 1563 1563 1563 1564 1564 1564 1564
1548 1549 1551 1552 1553 1554 1555 1557 1557 1558 1558 1559 1558 1558 1559 1559 1559 1560 1559 1560 1560 1560 1560 1560 1560 1561 1561 1561 1562 1562 1562 1562 1563 1563 1562 1561 1561 1562 1562 1562 1563 1563 1563
1548 1549 1550 1551 1552 1553 1554 1556 1557 1558 1559 1559 1558 1558 1559 1559 1559 1560 1559 1559 1559 1559 1560 1559 1560 1560 1560 1560 1561 1561 1561 1561 1561 1562 1561 1560 1560 1561 1561 1561 1561 1562 1562
1547 1548 1550 1550 1552 1553 1554 1555 1557 1558 1558 1559 1559 1559 1558 1559 1559 1559 1559 1558 1559 1559 1559 1559 1559 1559 1559 1560 1560 1560 1560 1560 1560 1560 1560 1560 1559 1559 1559 1559 1560 1560 1560
1546 1547 1549 1550 1551 1552 1554 1555 1557 1557 1558 1558 1559 1558 1558 1559 1558 1558 1558 1558 1558 1558 1557 1558 1558 1558 1558 1559 1558 1558 1558 1558 1559 1558 1559 1559 1559 1558 1557 1558 1558 1558 1558
1545 1546 1548 1550 1551 1552 1553 1555 1556 1557 1557 1558 1558 1558 1558 1558 1557 1557 1558 1558 1557 1557 1557 1557 1557 1557 1557 1557 1557 1557 1557 1557 1557 1557 1557 1557 1557 1557 1556 1556 1556 1556 1556
1544 1545 1547 1549 1550 1552 1553 1554 1555 1556 1556 1557 1558 1558 1557 1557 1557 1557 1557 1556 1556 1556 1556 1556 1556 1556 1556 1556 1556 1555 1556 1555 1555 1555 1555 1555 1555 1555 1555 1554 1553 1554 1554
1543 1544 1546 1547 1549 1550 1552 1553 1554 1555 1556 1556 1557 1556 1556 1556 1556 1556 1556 1555 1555 1555 1555 1554 1554 1554 1554 1554 1555 1554 1554 1554 1554 1554 1554 1554 1554 1553 1553 1553 1552 1552 1551
1541 1542 1544 1546 1547 1548 1550 1551 1553 1554 1554 1555 1555 1555 1555 1555 1555 1554 1555 1554 1554 1554 1553 1553 1553 1553 1553 1553 1553 1553 1552 1552 1552 1552 1552 1552 1552 1551 1551 1550 1550 1550 1550
1539 1540 1542 1544 1546 1547 1548 1549 1551 1552 1553 1553 1554 1553 1553 1553 1553 1554 1553 1553 1553 1552 1552 1552 1551 1552 1552 1551 1552 1551 1551 1552 1550 1550 1550 1550 1549 1549 1549 1548 1547 1547 1547
1536 1538 1540 1542 1543 1545 1546 1548 1549 1550 1550 1551 1552 1552 1551 1551 1551 1551 1551 1551 1551 1551 1551 1550 1549 1550 1550 1550 1550 1550 1550 1548 1549 1549 1548 1548 1547 1547 1547 1546 1545 1545 1544
1534 1536 1537 1539 1541 1542 1544 1545 1547 1547 1548 1549 1549 1550 1550 1549 1549 1549 1549 1549 1549 1550 1549 1549 1548 1548 1548 1548 1548 1547 1548 1547 1547 1546 1546 1546 1545 1545 1545 1544 1544 1542 1542
1531 1533 1535 1536 1538 1540 1541 1543 1544 1545 1546 1547 1547 1547 1548 1548 1547 1547 1547 1547 1547 1547 1547 1546 1546 1546 1546 1546 1547 1546 1546 1545 1545 1545 1544 1544 1544 1543 1542 1542 1541 1541 1540
1528 1530 1532 1533 1535 1537 1538 1540 1541 1542 1543 1544 1545 1545 1546 1546 1545 1545 1545 1545 1545 1545 1544 1544 1544 1544 1544 1544 1544 1544 1544 1544 1543 1543 1542 1542 1541 1541 1540 1539 1539 1539 1538